Pittsfield, MA

11:51 PM EDT on May 29, 2017 (GMT -0400)
Pittsfield Municipal

Weather History for KPSF - September, 2013

Change the Weather History Date:

Tuesday, September 24, 2013

  Actual Average Record
Temperature  
Mean Temperature 50 °F 55 °F  
Max Temperature 61 °F 66 °F 86 °F (1961)
Min Temperature 38 °F 45 °F 23 °F (1963)
Degree Days  
Heating Degree Days 15 10  
Month to date heating degree days 191 146  
Since 1 July heating degree days 247 224  
Cooling Degree Days 0 0  
Month to date cooling degree days 33 16  
Year to date cooling degree days 433 286  
Moisture  
Dew Point 39 °F    
Average Humidity 66    
Maximum Humidity 86    
Minimum Humidity 46    
Precipitation  
Precipitation 0.00 in 0.15 in 1.74 in (1946)
Month to date precipitation 3.69 2.97  
Year to date precipitation 31.79 32.75  
Sea Level Pressure  
Sea Level Pressure 29.94 in    
Wind  
Wind Speed 7 mph (WNW)    
Max Wind Speed 17 mph    
Max Gust Speed 26 mph    
Visibility 10 miles    
Events      
T = Trace of Precipitation, MM = Missing Value Source: NWS Daily Summary

Daily Weather History Graph

Daily Weather History Graph

Search for Another Location

Airport or City:

Trip Planner

Search our weather history database for the weather conditions in past years. The results will help you decide how hot, cold, wet, or windy it might be!

Date:

Astronomy

Sep. 24, 2013 Rise Set
Actual Time 6:42 AM EDT 6:46 PM EDT
Civil Twilight 6:14 AM EDT 7:14 PM EDT
Nautical Twilight 5:42 AM EDT 7:47 PM EDT
Astronomical Twilight 5:08 AM EDT 8:20 PM EDT
Moon 9:55 PM EDT (9/24) 12:01 PM EDT (9/24)
Length of Visible Light 12h 59m
Length of Day
12h 03m
Waning Gibbous, 73% of the Moon is Illuminated
Sep 24
Waning Gibbous
Sep 26
Last Quarter
Oct 4
New
Oct 11
First Quarter
Oct 18
Full

Hourly Weather History & Observations

Time (EDT) Temp. Windchill Dew Point Humidity Pressure Visibility Wind Dir Wind Speed Gust Speed Precip Events Conditions
12:43 AM 42.8 °F 39.3 °F 35.6 °F 76% 30.03 in 10.0 mi NW 5.8 mph 16.1 mph N/A   Scattered Clouds
12:54 AM 43.0 °F 38.8 °F 36.0 °F 76% 30.02 in 10.0 mi NW 6.9 mph - N/A   Clear
1:54 AM 39.9 °F 34.5 °F 35.1 °F 83% 30.01 in 10.0 mi WNW 8.1 mph - N/A   Clear
2:54 AM 39.0 °F 34.0 °F 36.0 °F 89% 30.00 in 10.0 mi WNW 6.9 mph - N/A   Clear
3:54 AM 39.0 °F 35.7 °F 36.0 °F 89% 29.99 in 10.0 mi NW 4.6 mph - N/A   Clear
4:54 AM 39.9 °F - 35.1 °F 83% 29.99 in 10.0 mi Calm Calm - N/A   Clear
5:54 AM 39.0 °F - 35.1 °F 86% 29.99 in 10.0 mi Calm Calm - N/A   Partly Cloudy
6:54 AM 39.0 °F - 36.0 °F 89% 30.00 in 10.0 mi Calm Calm - N/A   Clear
7:54 AM 44.1 °F 39.5 °F 37.0 °F 76% 29.98 in 10.0 mi WNW 8.1 mph 16.1 mph N/A   Clear
8:54 AM 45.0 °F 38.9 °F 37.0 °F 74% 29.97 in 10.0 mi WNW 12.7 mph 17.3 mph N/A   Partly Cloudy
9:54 AM 48.9 °F - 39.0 °F 69% 29.95 in 10.0 mi WNW 8.1 mph - N/A   Clear
10:54 AM 51.1 °F - 39.0 °F 63% 29.95 in 10.0 mi NW 8.1 mph 19.6 mph N/A   Clear
11:54 AM 54.0 °F - 41.0 °F 62% 29.93 in 10.0 mi WNW 8.1 mph 18.4 mph N/A   Clear
12:54 PM 57.0 °F - 41.0 °F 55% 29.92 in 10.0 mi WNW 11.5 mph 19.6 mph N/A   Clear
1:54 PM 57.9 °F - 39.9 °F 51% 29.90 in 10.0 mi NW 15.0 mph 18.4 mph N/A   Clear
2:54 PM 60.1 °F - 41.0 °F 49% 29.89 in 10.0 mi WNW 12.7 mph 20.7 mph N/A   Clear
3:54 PM 60.1 °F - 39.9 °F 47% 29.87 in 10.0 mi West 10.4 mph 21.9 mph N/A   Clear
4:54 PM 60.1 °F - 41.0 °F 49% 29.87 in 10.0 mi NW 12.7 mph - N/A   Clear
5:54 PM 59.0 °F - 43.0 °F 55% 29.87 in 10.0 mi WNW 6.9 mph - N/A   Clear
6:54 PM 54.0 °F - 43.0 °F 66% 29.87 in 10.0 mi WNW 10.4 mph - N/A   Clear
7:54 PM 54.0 °F - 42.1 °F 64% 29.90 in 10.0 mi Calm Calm - N/A   Clear
8:54 PM 52.0 °F - 43.0 °F 71% 29.91 in 10.0 mi Calm Calm - N/A   Clear
9:54 PM 50.0 °F - 43.0 °F 77% 29.92 in 10.0 mi Calm Calm - N/A   Clear
10:54 PM 48.9 °F - 44.1 °F 83% 29.93 in 10.0 mi SSW 3.5 mph - N/A   Clear
11:54 PM 46.9 °F - 43.0 °F 86% 29.93 in 10.0 mi WSW 5.8 mph - N/A   Clear